Location: Seven Kings
(51.5667°N, 0.1000°E)
Time: 12:19:42
(UTC+00:00)

Cosmos 2263 Rocket - Pass Details

Date: 29 October 2020
Orbit: 822 x 850 km, 71.0° (Epoch: 24 November)

Event Time Altitude Azimuth Distance (km) Brightness Sun altitude
Rises 20:19:36 0° 325° (NW) 3,423 6.1 -34.6°
Reaches altitude 10° 20:22:13 10° 317° (NW) 2,485 5.3 -35.0°
Enters shadow 20:26:48 35° 266° (W) 1,342 3.5 -35.6°
